Princeton, MN

6:08 AM CST on November 13, 2019 (GMT -0600)
Princeton Municipal

Weather History for KPNM - June, 2019

Change the Weather History Date:

Saturday, June 8, 2019

  Actual Average Record
Temperature  
Mean Temperature 78 °F -  
Max Temperature 87 °F 71 °F 87 °F (2019)
Min Temperature 68 °F 49 °F 39 °F (1998)
Cooling Degree Days 12    
Growing Degree Days 28 (Base 50)    
Moisture  
Dew Point 55 °F    
Average Humidity 46    
Maximum Humidity 68    
Minimum Humidity 29    
Precipitation  
Precipitation 0.00 in - - ()
Sea Level Pressure  
Sea Level Pressure 29.92 in    
Wind  
Wind Speed 8 mph (SE)    
Max Wind Speed 16 mph    
Max Gust Speed 22 mph    
Visibility 10 miles    
Events      
Averages and records for this station are not official NWS values.
T = Trace of Precipitation, MM = Missing Value Source: NWS Daily Summary

Daily Weather History Graph

Daily Weather History Graph

Search for Another Location

Airport or City:

Astronomy

Jun. 08, 2019 Rise Set
Actual Time 5:25 AM CDT 9:01 PM CDT
Civil Twilight 4:48 AM CDT 9:38 PM CDT
Nautical Twilight 3:58 AM CDT 10:29 PM CDT
Astronomical Twilight 2:52 AM CDT 11:35 PM CDT
Moon 11:01 AM CDT (6/8) 12:57 AM CDT (6/8)
Length of Visible Light 16h 50m
Length of Day
15h 35m
Waxing Crescent, 33% of the Moon is Illuminated
Jun 8
Waxing Crescent
Jun 10
First Quarter
Jun 17
Full
Jun 25
Last Quarter
Jul 2
New

Hourly Weather History & Observations

Time (CDT) Temp. Heat Index Dew Point Humidity Pressure Visibility Wind Dir Wind Speed Gust Speed Precip Events Conditions
12:15 AM 73.4 °F - 55.4 °F 53% 29.90 in 10.0 mi SE 5.8 mph - N/A   Clear
12:16 AM 73.4 °F - 55.4 °F 53% 29.90 in 10.0 mi SE 5.8 mph - N/A   Clear
12:35 AM 71.6 °F - 55.4 °F 57% 29.91 in 10.0 mi SE 6.9 mph - N/A   Clear
12:36 AM 73.4 °F - 55.4 °F 53% 29.91 in 10.0 mi SE 5.8 mph - N/A   Clear
12:58 AM 71.6 °F - 55.4 °F 57% 29.91 in 10.0 mi SSE 5.8 mph - N/A   Clear
1:17 AM 71.6 °F - 55.4 °F 57% 29.92 in 7.0 mi SE 5.8 mph - N/A   Clear
1:55 AM 69.8 °F - 57.2 °F 64% 29.92 in 10.0 mi SSE 5.8 mph - N/A   Clear
2:15 AM 69.8 °F - 57.2 °F 64% 29.93 in 10.0 mi SSE 4.6 mph - N/A   Clear
2:38 AM 69.8 °F - 57.2 °F 64% 29.94 in 10.0 mi SE 4.6 mph - N/A   Clear
2:56 AM 69.8 °F - 57.2 °F 64% 29.93 in 10.0 mi SE 8.1 mph - N/A   Clear
3:15 AM 71.6 °F - 57.2 °F 60% 29.93 in 10.0 mi SE 8.1 mph - N/A   Clear
3:35 AM 71.6 °F - 57.2 °F 60% 29.94 in 10.0 mi SE 6.9 mph - N/A   Clear
3:36 AM 71.6 °F - 57.2 °F 60% 29.94 in 10.0 mi SE 6.9 mph - N/A   Clear
3:59 AM 71.6 °F - 57.2 °F 60% 29.93 in 10.0 mi SE 9.2 mph - N/A   Clear
4:17 AM 69.8 °F - 57.2 °F 64% 29.94 in 10.0 mi SE 5.8 mph - N/A   Clear
4:35 AM 68.0 °F - 57.2 °F 68% 29.94 in 10.0 mi SE 3.5 mph - N/A   Clear
4:55 AM 69.8 °F - 57.2 °F 64% 29.94 in 10.0 mi SE 5.8 mph - N/A   Clear
5:15 AM 69.8 °F - 57.2 °F 64% 29.95 in 10.0 mi SE 5.8 mph - N/A   Clear
5:38 AM 68.0 °F - 57.2 °F 68% 29.95 in 10.0 mi SSE 5.8 mph - N/A   Clear
5:55 AM 69.8 °F - 57.2 °F 64% 29.95 in 10.0 mi SE 6.9 mph - N/A   Clear
6:15 AM 69.8 °F - 57.2 °F 64% 29.95 in 10.0 mi SE 6.9 mph - N/A   Clear
6:35 AM 69.8 °F - 57.2 °F 64% 29.95 in 10.0 mi SE 8.1 mph - N/A   Clear
6:59 AM 69.8 °F - 57.2 °F 64% 29.96 in 10.0 mi SSE 9.2 mph - N/A   Clear
7:17 AM 71.6 °F - 57.2 °F 60% 29.96 in 10.0 mi SSE 9.2 mph - N/A   Clear
7:35 AM 71.6 °F - 57.2 °F 60% 29.96 in 10.0 mi SSE 9.2 mph - N/A   Clear
7:55 AM 73.4 °F - 57.2 °F 57% 29.96 in 10.0 mi SSE 9.2 mph - N/A   Clear
7:56 AM 73.4 °F - 57.2 °F 57% 29.96 in 10.0 mi SSE 10.4 mph 16.1 mph N/A   Clear
8:15 AM 73.4 °F - 57.2 °F 57% 29.96 in 10.0 mi SE 10.4 mph - N/A   Clear
8:20 AM 73.4 °F - 57.2 °F 57% 29.96 in 10.0 mi SSE 11.5 mph 18.4 mph N/A   Clear
8:37 AM 75.2 °F - 57.2 °F 53% 29.96 in 10.0 mi SE 11.5 mph - N/A   Clear
8:56 AM 77.0 °F - 59.0 °F 54% 29.96 in 10.0 mi SSE 11.5 mph - N/A   Clear
9:15 AM 77.0 °F - 57.2 °F 50% 29.96 in 10.0 mi SE 13.8 mph 19.6 mph N/A   Clear
9:35 AM 78.8 °F - 57.2 °F 47% 29.96 in 7.0 mi SSE 12.7 mph 16.1 mph N/A   Clear
9:36 AM 78.8 °F - 57.2 °F 47% 29.96 in 7.0 mi SSE 11.5 mph 16.1 mph N/A   Clear
9:58 AM 78.8 °F - 57.2 °F 47% 29.96 in 10.0 mi South 10.4 mph 18.4 mph N/A   Clear
10:17 AM 80.6 °F 81.1 °F 59.0 °F 48% 29.96 in 10.0 mi SSE 11.5 mph 17.3 mph N/A   Clear
10:35 AM 80.6 °F 80.8 °F 57.2 °F 45% 29.95 in 10.0 mi SE 15.0 mph 19.6 mph N/A   Clear
10:55 AM 82.4 °F 82.0 °F 57.2 °F 42% 29.95 in 10.0 mi SSE 13.8 mph 19.6 mph N/A   Clear
10:56 AM 82.4 °F 82.0 °F 57.2 °F 42% 29.95 in 10.0 mi SSE 16.1 mph 21.9 mph N/A   Clear
11:15 AM 82.4 °F 82.0 °F 57.2 °F 42% 29.95 in 10.0 mi SSE 11.5 mph 21.9 mph N/A   Clear
11:20 AM 82.4 °F 82.0 °F 57.2 °F 42% 29.95 in 10.0 mi South 9.2 mph - N/A   Clear
11:38 AM 82.4 °F 82.0 °F 57.2 °F 42% 29.95 in 10.0 mi SSE 12.7 mph 18.4 mph N/A   Clear
11:56 AM 84.2 °F 83.8 °F 59.0 °F 42% 29.95 in 10.0 mi SSE 12.7 mph 16.1 mph N/A   Clear
12:16 PM 84.2 °F 83.5 °F 57.2 °F 40% 29.95 in 10.0 mi South 10.4 mph 21.9 mph N/A   Clear
12:35 PM 84.2 °F 83.5 °F 57.2 °F 40% 29.95 in 10.0 mi SSW 11.5 mph 16.1 mph N/A   Clear
12:36 PM 84.2 °F 83.5 °F 57.2 °F 40% 29.95 in 10.0 mi South 10.4 mph 16.1 mph N/A   Clear
12:59 PM 84.2 °F 83.0 °F 55.4 °F 37% 29.93 in 10.0 mi South 13.8 mph 18.4 mph N/A   Clear
1:17 PM 84.2 °F 83.5 °F 57.2 °F 40% 29.92 in 10.0 mi SE 10.4 mph - N/A   Clear
1:35 PM 86.0 °F 84.5 °F 55.4 °F 35% 29.92 in 10.0 mi SE 10.4 mph 18.4 mph N/A   Clear
1:55 PM 86.0 °F - 51.8 °F 31% 29.92 in 10.0 mi SE 12.7 mph 20.7 mph N/A   Clear
1:56 PM 86.0 °F - 51.8 °F 31% 29.92 in - SE 15.0 mph 21.9 mph N/A   Clear
2:15 PM 87.8 °F - 51.8 °F 29% 29.92 in 10.0 mi SSE 16.1 mph 20.7 mph N/A   Clear
2:20 PM 87.8 °F - 51.8 °F 29% 29.92 in 10.0 mi South 10.4 mph 19.6 mph N/A   Clear
2:38 PM 87.8 °F - 51.8 °F 29% 29.92 in 10.0 mi South 10.4 mph - N/A   Clear
2:56 PM 87.8 °F 85.7 °F 53.6 °F 31% 29.91 in 10.0 mi SSE 8.1 mph 18.4 mph N/A   Clear
3:15 PM 87.8 °F 85.7 °F 53.6 °F 31% 29.91 in 10.0 mi South 11.5 mph 16.1 mph N/A   Clear
3:16 PM 87.8 °F 85.7 °F 53.6 °F 31% 29.91 in 10.0 mi South 13.8 mph 18.4 mph N/A   Clear
3:35 PM 87.8 °F 85.7 °F 53.6 °F 31% 29.91 in 10.0 mi SE 9.2 mph 17.3 mph N/A   Clear
3:59 PM 87.8 °F - 51.8 °F 29% 29.90 in 10.0 mi SSE 11.5 mph 19.6 mph N/A   Clear
4:17 PM 87.8 °F - 51.8 °F 29% 29.89 in 10.0 mi SE 11.5 mph - N/A   Clear
4:35 PM 87.8 °F - 51.8 °F 29% 29.89 in 10.0 mi South 11.5 mph 20.7 mph N/A   Clear
4:36 PM 87.8 °F 85.7 °F 53.6 °F 31% 29.90 in 10.0 mi SSE 12.7 mph 18.4 mph N/A   Clear
4:55 PM 87.8 °F - 51.8 °F 29% 29.90 in 10.0 mi SSE 9.2 mph 20.7 mph N/A   Clear
4:56 PM 87.8 °F - 51.8 °F 29% 29.90 in 10.0 mi SSE 10.4 mph 20.7 mph N/A   Clear
5:15 PM 87.8 °F 85.7 °F 53.6 °F 31% 29.90 in 10.0 mi SSE 11.5 mph 16.1 mph N/A   Clear
5:38 PM 87.8 °F - 51.8 °F 29% 29.89 in 10.0 mi South 10.4 mph 18.4 mph N/A   Clear
5:56 PM 87.8 °F 85.7 °F 53.6 °F 31% 29.89 in 10.0 mi South 8.1 mph - N/A   Clear
6:15 PM 86.0 °F - 51.8 °F 31% 29.89 in 10.0 mi South 10.4 mph - N/A   Clear
6:16 PM 86.0 °F - 51.8 °F 31% 29.89 in 10.0 mi South 8.1 mph - N/A   Clear
6:35 PM 86.0 °F 84.2 °F 53.6 °F 33% 29.89 in 10.0 mi SSE 5.8 mph - N/A   Clear
6:36 PM 86.0 °F 84.2 °F 53.6 °F 33% 29.89 in 10.0 mi SSE 5.8 mph - N/A   Clear
6:59 PM 84.2 °F 82.8 °F 53.6 °F 35% 29.89 in 10.0 mi South 10.4 mph - N/A   Clear
7:17 PM 84.2 °F 83.0 °F 55.4 °F 37% 29.89 in 10.0 mi SSE 10.4 mph - N/A   Clear
7:35 PM 84.2 °F 82.8 °F 53.6 °F 35% 29.89 in 10.0 mi SE 9.2 mph - N/A   Clear
7:55 PM 82.4 °F 81.7 °F 55.4 °F 39% 29.89 in 10.0 mi SE 6.9 mph - N/A   Clear
8:15 PM 80.6 °F 80.3 °F 53.6 °F 39% 29.90 in 10.0 mi ESE 6.9 mph - N/A   Clear
8:20 PM 80.6 °F 80.3 °F 53.6 °F 39% 29.90 in 10.0 mi ESE 6.9 mph - N/A   Clear
8:38 PM 78.8 °F - 55.4 °F 44% 29.90 in 10.0 mi ESE 4.6 mph - N/A   Clear
8:56 PM 77.0 °F - 55.4 °F 47% 29.90 in 10.0 mi ESE 5.8 mph - N/A   Clear
9:15 PM 75.2 °F - 53.6 °F 47% 29.90 in 10.0 mi ESE 5.8 mph - N/A   Clear
9:35 PM 75.2 °F - 53.6 °F 47% 29.90 in 10.0 mi ESE 8.1 mph - N/A   Clear
9:36 PM 75.2 °F - 53.6 °F 47% 29.90 in 10.0 mi ESE 8.1 mph - N/A   Clear
9:59 PM 75.2 °F - 55.4 °F 50% 29.91 in 10.0 mi SE 9.2 mph - N/A   Clear
10:17 PM 75.2 °F - 55.4 °F 50% 29.91 in 10.0 mi SE 6.9 mph - N/A   Clear
10:35 PM 75.2 °F - 53.6 °F 47% 29.91 in 10.0 mi SE 9.2 mph - N/A   Clear
10:36 PM 75.2 °F - 53.6 °F 47% 29.91 in 10.0 mi SE 9.2 mph - N/A   Clear
10:55 PM 75.2 °F - 53.6 °F 47% 29.91 in 10.0 mi SE 8.1 mph - N/A   Clear
10:56 PM 75.2 °F - 53.6 °F 47% 29.91 in 10.0 mi SE 8.1 mph - N/A   Clear
11:15 PM 73.4 °F - 53.6 °F 50% 29.91 in 10.0 mi SE 5.8 mph - N/A   Clear
11:20 PM 73.4 °F - 53.6 °F 50% 29.92 in 10.0 mi SE 6.9 mph - N/A   Clear
11:38 PM 73.4 °F - 53.6 °F 50% 29.92 in 10.0 mi SE 6.9 mph - N/A   Clear
11:56 PM 73.4 °F - 53.6 °F 50% 29.92 in 10.0 mi SE 6.9 mph - N/A   Clear